Location: Chandrammap?lem
(16.9200°N, 81.0051°E)
Time: 13:20:45
(UTC+00:00)

Hubble Space Telescope - Pass Details

Date: 29 May 2024
Orbit: 510 x 514 km, 28.5° (Epoch: 18 June)

Event Time Altitude Azimuth Distance (km) Brightness Sun altitude
Rises 15:43:54 0° 302° (WNW) 2,609 5.3 -33.2°
Reaches altitude 10° 15:46:54 10° 326° (NW) 1,722 4.1 -33.8°
Enters shadow 15:47:41 13° 336° (NNW) 1,565 3.8 -33.9°
